Location: Brompton
(51.4000°N, 0.5333°E)
Time: 04:00:46
(UTC+00:00)

Cosmos 1743 - Pass Details

Date: 11 May 2021
Orbit: 511 x 525 km, 82.6° (Epoch: 13 June)

Event Time Altitude Azimuth Distance (km) Brightness Sun altitude
Rises 22:42:54 0° 344° (NNW) 2,652 8.0 -18.7°
Reaches altitude 10° 22:45:06 10° 339° (NNW) 1,762 6.7 -18.8°
Maximum altitude 22:48:48 46° 266° (W) 714 3.4 -19.0°
Enters shadow 22:49:53 35° 221° (SW) 857 3.5 -19.1°
